Regional Weather Roundup
Issued by NWS

Home | Current Version | Previous Version | Graphics & Text | Print | Product List | Glossary On
Versions: 1 2 3 4 5 6 7 8 9 10 11 12 13 14 15 16 17 18 19 20 21 22 23 24 25 26 27 28 29 30 31 32 33 34 35 36 37 38 39 40 41 42 43 44 45 46 47 48 49 50
000
ASUS43 KFSD 161410
RWRSD

WEATHER ROUNDUP FOR SOUTH DAKOTA
NATIONAL WEATHER SERVICE SIOUX FALLS SD
900 AM CDT WED APR 16 2014

NOTE: "FAIR" INDICATES FEW OR NO CLOUDS BELOW 12,000 FEET WITH NO
SIGNIFICANT WEATHER AND/OR OBSTRUCTIONS TO VISIBILITY.


SDZ001>005-009-010-012>017-161500-
NORTHWEST AND NORTH CENTRAL SOUTH DAKOTA

CITY           SKY/WX    TMP DP  RH WIND       PRES   REMARKS
BUFFALO          N/A     27  17  66 N20       29.82R WCI  13
FAITH            N/A     28  21  75 N18       29.84  WCI  15
MOBRIDGE       CLOUDY    30  23  75 NE21      29.85R WCI  17
$$

SDZ012>016-024>037-041>051-057-063-072>074-161500-
SOUTHWEST AND SOUTH CENTRAL SOUTH DAKOTA

CITY           SKY/WX    TMP DP  RH WIND       PRES   REMARKS
RAPID CTY ARPT CLOUDY    41  34  76 NW33G40   29.79R
PIERRE         LGT SNOW  30  28  92 N17       29.78R FOG     WCI  18
CUSTER         FLURRIES  33  27  78 NW8G21    29.77R WCI  26
ELLSWORTH AFB  LGT RAIN  41  34  75 N28G36    29.79R
PHILIP         CLOUDY    33  29  85 N15       29.80R WCI  23
PINE RIDGE     LGT RAIN  39  36  89 N9        29.79R FOG
SPEARFISH      FAIR      37  30  75 NW16G22   29.86R
WINNER         LGT SNOW  34  32  92 N17       29.70R FOG     WCI  23
$$

SDZ004>011-016>023-039-040-161500-
NORTHEAST SOUTH DAKOTA

CITY           SKY/WX    TMP DP  RH WIND       PRES   REMARKS
ABERDEEN       LGT SNOW  27  25  92 NE22G28   29.84R VSB 1   WCI  13
WATERTOWN      CLOUDY    30  21  69 E22G35    29.71F WCI  17
SISSETON         N/A     28  26  92 E17       29.87R WCI  16
$$

SDZ017-020-022-023-036>040-048>070-161500-
SOUTHEAST SOUTH DAKOTA

CITY           SKY/WX    TMP DP  RH WIND       PRES   REMARKS
SIOUX FALLS    LGT RAIN  46  27  47 S22G31    29.61S
HURON          LGT SNOW  32  27  81 NE18      29.70R VSB 1   WCI  20
CHAMBERLAIN      N/A     32  30  92 N21G29    29.68  WCI  20
MITCHELL       CLOUDY    41  34  76 NE17      29.60R
YANKTON        CLOUDY    48  25  40 S17G23    29.60S
$$

ABBREVIATIONS USED IN REMARKS
   TC - TEMPERATURE IN CELSIUS
  WCI - WIND CHILL INDEX
   HX - HEAT INDEX
  VSB - VISIBILITY




USA.gov is the U.S. government's official web portal to all federal, state and local government web resources and services.